Flag for Spain Weather past 2 weeks in Barcelona, Barcelona, Spain

Now
73 °F

Passing clouds.


Feels Like: 75 °F
Forecast: 67 / 80 °F
Wind: 9 mph from Northwest

Location: Barcelona Airport

Current Time: Sep 20, 2014 at 10:33:01 AM

Latest Report: Sep 20, 2014 at 10:00 AM


Visibility: N/A

Pressure: 30.01 "Hg

Humidity: 74%

Dew point: 64 °F

Location of BarcelonaLocation

Historic Weather in Barcelona — Graph

°F

Barcelona temperature yesterday

Maximum temperature yesterday: 82 °F (at 4:30 PM)
Minimum temperature yesterday: 70 °F (at 6:30 AM)
Average temperature yesterday: 76 °F

Past Weeks' High & Low Weather Summary

 TemperatureHumidityPressure
High82 °F (Sep 6, 5:00 PM)100% (Sep 15, 1:00 AM)30.04 "Hg (Sep 15, 1:00 AM)
Low64 °F (Sep 15, 12:30 AM)51% (Sep 10, 11:00 AM)29.71 "Hg (Sep 17, 4:30 PM)
Average76 °F76%29.90 "Hg
* Reported Sep 5 9:00 AM — Sep 20 9:30 AM, Barcelona, Weather by CustomWeather, © 2014

Note: Actual official high and low records may vary slightly from our data, if they occured in-between our weather recording intervals... More about our weather records

Advertising

Barcelona weather history for previous 24 hours

 ConditionsComfort  
Time TempWeatherWind HumidityBarometerVisibility
9:30 AM
Sep 20
72 °FPassing clouds.8 mph78%29.98 "HgN/A
9:00 AM72 °FPassing clouds.10 mph78%29.98 "HgN/A
8:30 AM70 °FPassing clouds.10 mph83%29.98 "HgN/A
8:00 AM70 °FPassing clouds.9 mph83%29.98 "HgN/A
7:30 AM70 °FPassing clouds.6 mph83%29.98 "HgN/A
7:00 AM70 °FPassing clouds.8 mph83%29.98 "HgN/A
6:30 AM70 °FPassing clouds.9 mph88%29.95 "HgN/A
6:00 AM70 °FPassing clouds.7 mph88%29.95 "HgN/A
5:30 AM72 °FPassing clouds.8 mph88%29.95 "HgN/A
4:30 AM72 °FPassing clouds.6 mph88%29.95 "HgN/A
4:00 AM72 °FPassing clouds.5 mph88%29.95 "HgN/A
3:00 AM73 °FPassing clouds.3 mph83%29.95 "HgN/A
2:30 AM73 °FPassing clouds.2 mph83%29.98 "HgN/A
2:00 AM73 °FPassing clouds.3 mph83%29.95 "HgN/A
1:30 AM73 °FPassing clouds.5 mph83%29.95 "HgN/A
1:00 AM73 °FPassing clouds.2 mph83%29.95 "HgN/A
12:30 AM73 °FPassing clouds.1 mph94%29.95 "HgN/A
12:00 AM73 °FPassing clouds.6 mph94%29.95 "HgN/A
11:30 PM
Sep 19
75 °FPassing clouds.6 mph89%29.95 "HgN/A
10:30 PM75 °FPassing clouds.5 mph89%29.95 "HgN/A
10:00 PM75 °FPassing clouds.6 mph89%29.95 "HgN/A
9:30 PM75 °FPassing clouds.3 mph89%29.92 "HgN/A
9:00 PM77 °FPassing clouds.3 mph83%29.92 "HgN/A
8:30 PM77 °FPassing clouds.2 mph83%29.92 "HgN/A
8:00 PM77 °FPassing clouds.3 mph83%29.92 "HgN/A
7:30 PM79 °FPassing clouds.5 mph79%29.89 "HgN/A
7:00 PM79 °FPassing clouds.6 mph79%29.89 "HgN/A
6:30 PM81 °FPassing clouds.7 mph74%29.89 "HgN/A
6:00 PM81 °FPassing clouds.8 mph74%29.89 "HgN/A
5:30 PM81 °FPassing clouds.7 mph74%29.89 "HgN/A
5:00 PM81 °FPassing clouds.9 mph74%29.89 "HgN/A
4:30 PM82 °FPassing clouds.8 mph70%29.89 "HgN/A
4:00 PM81 °FPassing clouds.9 mph70%29.89 "HgN/A
3:30 PM81 °FPassing clouds.8 mph66%29.89 "HgN/A
3:00 PM81 °FPassing clouds.9 mph70%29.89 "HgN/A
2:30 PM81 °FPassing clouds.8 mph66%29.89 "HgN/A
2:00 PM81 °FPassing clouds.7 mph66%29.89 "HgN/A
1:30 PM81 °FPassing clouds.7 mph70%29.89 "HgN/A
1:00 PM81 °FPassing clouds.6 mph70%29.89 "HgN/A
12:30 PM81 °FPassing clouds.7 mph66%29.92 "HgN/A
12:00 PM81 °FPassing clouds.6 mph66%29.89 "HgN/A
11:30 AM81 °FPassing clouds.6 mph70%29.89 "HgN/A
11:00 AM81 °FPassing clouds.2 mph62%29.89 "HgN/A
10:30 AM77 °FPassing clouds.2 mph69%29.89 "HgN/A
10:00 AM77 °FPassing clouds.2 mph69%29.89 "HgN/A
Weather by CustomWeather, © 2014

See weather overviewHow to use our weather pages